This is the latest recevied weather packets stored in our database for station/object W9ESR. If no packets are shown the sender has not sent any weather packets the latest 1 day(s).
| Time | Temp. | Humidity | Pressure | Rain* | Wind** | Luminosity | Snow |
|---|---|---|---|---|---|---|---|
| 1778002669 | 12.22° C | 42% | - | 0 mm | 3.13 m/s, 333° | - | - |
| 1778002366 | 11.67° C | 41% | - | 0 mm | 4.02 m/s, 22° | - | - |
| 1778002063 | 11.67° C | 40% | - | 0 mm | 4.02 m/s, 325° | - | - |
| 1778001760 | 11.67° C | 43% | - | 0 mm | 3.58 m/s, 337° | - | - |
| 1778001460 | 11.67° C | 44% | - | 0 mm | 4.47 m/s, 0° | - | - |
| 1778001157 | 11.67° C | 44% | - | 0 mm | 4.92 m/s, 347° | - | - |
| 1778000854 | 11.67° C | 44% | - | 0 mm | 2.68 m/s, 11° | - | - |
| 1778000551 | 11.11° C | 47% | - | 0 mm | 1.79 m/s, 294° | - | - |
| 1778000246 | 11.67° C | 48% | - | 0 mm | 4.02 m/s, 343° | - | - |
| 1777999942 | 11.11° C | 49% | - | 0 mm | 1.34 m/s, 340° | - | - |
| 1777999638 | 11.11° C | 49% | - | 0 mm | 1.79 m/s, 270° | - | - |
| 1777999335 | 11.11° C | 47% | - | 0 mm | 1.34 m/s, 3° | - | - |
| 1777999033 | 11.11° C | 47% | - | 0 mm | 3.58 m/s, 8° | - | - |
| 1777998731 | 11.11° C | 47% | - | 0 mm | 4.47 m/s, 0° | - | - |
| 1777998429 | 11.11° C | 47% | - | 0 mm | 2.24 m/s, 339° | - | - |
| 1777998126 | 11.11° C | 48% | - | 0 mm | 2.68 m/s, 10° | - | - |
| 1777997822 | 11.11° C | 49% | - | 0 mm | 1.79 m/s, 2° | - | - |
| 1777997520 | 11.11° C | 49% | - | 0 mm | 1.79 m/s, 346° | - | - |
| 1777997218 | 11.11° C | 50% | - | 0 mm | 2.24 m/s, 324° | - | - |
| 1777996915 | 10.56° C | 49% | - | 0 mm | 1.79 m/s, 27° | - | - |
| 1777996611 | 11.11° C | 47% | - | 0 mm | 1.79 m/s, 13° | - | - |
| 1777996307 | 11.11° C | 46% | - | 0 mm | 2.68 m/s, 4° | - | - |
| 1777996004 | 10.56° C | 50% | - | 0 mm | 2.68 m/s, 8° | - | - |
| 1777995700 | 10.56° C | 51% | - | 0 mm | 1.79 m/s, 326° | - | - |
| 1777995397 | 10.56° C | 53% | - | 0 mm | 2.68 m/s, 343° | - | - |
* Rain latest hour (hover to see other rain measurements)
** Current wind speed in m/s (hover to see current wind gust speed)